[[{"header":{"parameterUnit":"m.s-1","parameterCategory":1,"la1":30.2991,"la2":30.254,"lo1":-89.0895,"lo2":-89.0444,"dy":0.0017,"dx":0.0017,"nx":28,"ny":28,"refTime":"2024-04-20T03:00:00:Z","depth":0,"parameterNumber":2,"parameterNumberName":"U-component_of_WINDS"},"data":[0,0,0,0,0,0,0,0,0,0,0,0,0,0,0,0,0,0,0,0,0,0,0,0,0,0,0,0,0,0,0,0,0,0,0,0,0,0,0,0,0,0,0,0,0,0,0,0,0,0,0,0,0,0,0,0,0,0,-1.1846,-1.1846,0,-1.1883,-1.1883,-1.1884,-1.1872,-1.1872,-1.1871,-1.187,-1.1907,-1.1909,-1.191,0,0,0,0,0,0,0,0,0,0,0,0,0,-1.1763,-1.1765,-1.1845,-1.1846,-1.1846,-1.1883,-1.1883,-1.1884,-1.1872,-1.1872,-1.1871,-1.187,-1.1907,-1.1909,-1.1911,0,0,0,0,0,0,0,0,0,0,0,0,0,-1.1799,-1.1765,-1.1845,-1.1845,-1.1846,-1.1883,-1.1883,-1.1884,-1.1873,-1.1872,-1.187,-1.1869,-1.1906,-1.1908,-1.1911,-1.195,0,0,-1.1919,-1.192,0,0,0,0,0,0,0,0,-1.1797,-1.1803,-1.1845,-1.1845,-1.1846,-1.1872,-1.1868,-1.1906,-1.1873,-1.1862,-1.187,-1.1869,-1.1896,-1.1899,-1.1909,-1.1952,-1.1953,-1.1919,-1.192,-1.1922,-1.1922,0,0,0,0,0,0,0,-1.1795,-1.1801,-1.186,-1.1845,-1.1846,-1.1843,-1.1847,-1.1875,-1.1885,-1.1863,-1.1862,-1.1867,-1.1896,-1.1907,-1.191,-1.1954,-1.1919,-1.1921,-1.1923,-1.1924,-1.2029,-1.203,0,0,0,0,0,0,-1.1792,-1.1799,-1.1859,-1.1861,-1.1818,-1.1845,-1.185,-1.1865,-1.1885,-1.1887,-1.1868,-1.1866,-1.1903,-1.1907,-1.1911,-1.1957,-1.1922,-1.1924,-1.1925,-1.2028,-1.2029,-1.2031,0,0,0,0,0,0,-1.1791,-1.1798,-1.1857,-1.183,-1.1837,-1.1848,-1.1865,-1.1866,-1.1876,-1.1889,-1.189,-1.1877,-1.1902,-1.1907,-1.194,-1.1959,-1.1925,-1.1927,-1.2026,-1.2028,-1.203,-1.2051,0,0,0,0,0,0,-1.1788,-1.1797,-1.1813,-1.183,-1.1839,-1.1887,-1.1866,-1.1867,-1.1881,-1.1879,-1.1897,-1.1899,-1.1901,-1.1936,-1.1943,-1.1961,-1.1929,-1.2025,-1.2027,-1.2029,-1.2049,-1.2053,-1.2057,0,0,0,0,0,-1.1785,-1.1817,-1.1813,-1.1821,-1.1858,-1.1888,-1.1892,-1.1895,-1.1882,-1.1898,-1.1905,-1.1899,-1.1955,-1.194,-1.1947,-1.1967,-1.2024,-1.2026,-1.2029,-1.2047,-1.2052,-1.2057,0,0,0,0,0,0,-1.1801,-1.1819,-1.1816,-1.1854,-1.1869,-1.1886,-1.1905,-1.1901,-1.192,-1.1917,-1.1919,-1.1923,-1.1957,-1.1965,-1.1947,-1.2005,-1.1988,-1.1992,-1.1998,-1.2004,-1.2008,-1.2005,-1.1932,0,0,0,0,0,-1.1809,-1.1832,-1.1846,-1.1879,-1.1887,-1.1895,-1.1908,-1.1908,-1.1924,-1.193,-1.194,-1.1956,-1.1977,-1.1991,-1.2011,-1.205,-1.2053,-1.2067,-1.2071,-1.2074,-1.2078,-1.2098,-1.2104,-1.204,-1.204,-1.204,0,0,-1.1826,-1.1838,-1.1853,-1.1882,-1.1894,-1.1917,-1.19,-1.1925,-1.1942,-1.1934,-1.1965,-1.1973,-1.199,-1.2026,-1.2042,-1.2034,-1.2097,-1.2078,-1.2081,-1.2083,-1.2102,-1.2108,-1.2113,-1.2042,-1.2042,-1.2041,0,0,-1.1868,-1.188,-1.1908,-1.192,-1.1939,-1.1943,-1.195,-1.1967,-1.1972,-1.2004,-1.1998,-1.2017,-1.2054,-1.2066,-1.2077,-1.2123,-1.2117,-1.2129,-1.2152,-1.2171,-1.2177,-1.2181,-1.2197,-1.2202,-1.2133,-1.2133,-1.2133,0,-1.1886,-1.1921,-1.1923,-1.1949,-1.1961,-1.1955,-1.1983,-1.1994,-1.2018,-1.2027,-1.2017,-1.2063,-1.2074,-1.2112,-1.2123,-1.2132,-1.2139,-1.2127,-1.2176,-1.218,-1.2184,-1.2199,-1.2205,-1.2134,-1.2134,-1.2134,-1.2134,0,-1.1942,-1.1966,-1.1987,-1.201,-1.2025,-1.2052,-1.2057,-1.2072,-1.2071,-1.2077,-1.2108,-1.2121,-1.2144,-1.2153,-1.2152,-1.219,-1.2184,-1.2175,-1.2158,-1.2192,-1.2206,-1.2212,-1.2136,-1.2136,-1.2135,-1.2135,0,0,-1.1996,-1.2019,-1.2027,-1.2037,-1.2056,-1.2075,-1.2101,-1.2123,-1.2135,-1.2151,-1.2173,-1.2204,-1.2195,-1.2207,-1.2208,-1.2225,-1.2259,-1.2214,-1.2214,-1.2221,-1.2302,-1.2308,-1.2315,-1.2255,-1.2257,-1.2257,-1.23,0,-1.2039,-1.2085,-1.2087,-1.2129,-1.2151,-1.2145,-1.2167,-1.2181,-1.2187,-1.2205,-1.2211,-1.2233,-1.2221,-1.2228,-1.2245,-1.2252,-1.2275,-1.2249,-1.2275,-1.2276,-1.227,-1.2322,-1.2329,-1.2369,-1.2305,-1.2306,-1.2307,0,-1.2096,-1.2114,-1.2158,-1.2174,-1.2183,-1.2203,-1.2223,-1.2242,-1.2257,-1.2259,-1.2273,-1.2271,-1.2296,-1.2278,-1.2313,-1.2294,-1.2305,-1.231,-1.2311,-1.2314,-1.2293,-1.2325,-1.2382,-1.2387,-1.2316,-1.2315,-1.2315,0,-1.213,-1.2166,-1.2196,-1.2205,-1.2224,-1.2238,-1.2247,-1.2261,-1.2274,-1.2291,-1.2299,-1.2319,-1.233,-1.2345,-1.2347,-1.2334,-1.2382,-1.2364,-1.2384,-1.2384,-1.2395,-1.2394,-1.2453,-1.2402,-1.2402,-1.2402,-1.2402,0,-1.2178,-1.2205,-1.2212,-1.2231,-1.226,-1.2262,-1.2291,-1.2298,-1.2311,-1.233,-1.2326,-1.2344,-1.2347,-1.2365,-1.2367,-1.2396,-1.2401,-1.2403,-1.2403,-1.2403,-1.2403,-1.241,-1.2407,-1.2404,-1.2403,-1.2403,-1.2403,0,-1.2222,-1.2227,-1.226,-1.2275,-1.2279,-1.23,-1.2313,-1.2331,-1.2335,-1.236,-1.2366,-1.2374,-1.2395,-1.2399,-1.2425,-1.2426,-1.246,-1.2457,-1.2455,-1.2454,-1.2474,-1.2472,-1.2539,-1.2548,-1.2492,-1.2493,-1.2493,0,-1.2252,-1.2272,-1.229,-1.2302,-1.2312,-1.2333,-1.2345,-1.2348,-1.2361,-1.2379,-1.2395,-1.2416,-1.2433,-1.2468,-1.2475,-1.2494,-1.2492,-1.2514,-1.2495,-1.2494,-1.2492,-1.249,-1.2492,-1.2518,-1.2519,-1.2519,-1.2519,0,-1.2305,-1.2306,-1.2325,-1.2345,-1.2361,-1.2377,-1.2392,-1.2402,-1.2406,-1.2422,-1.2444,-1.2457,-1.2483,-1.2504,-1.2523,-1.253,-1.2525,-1.2526,-1.2531,-1.2531,-1.2529,-1.253,-1.2464,-1.2524,-1.2524,-1.2523,-1.2523,-1.2523,-1.2342,-1.236,-1.2374,-1.2396,-1.2407,-1.2421,-1.2438,-1.2445,-1.2463,-1.2485,-1.2485,-1.2509,-1.2522,-1.2547,-1.2556,-1.2575,-1.2567,-1.2576,-1.2578,-1.258,-1.2581,-1.2526,-1.2578,-1.2578,-1.2578,-1.2578,-1.2578,0,-1.2394,-1.2403,-1.2423,-1.2444,-1.246,-1.2454,-1.247,-1.2484,-1.2505,-1.2519,-1.2535,-1.256,-1.258,-1.2589,-1.2608,-1.2621,-1.2619,-1.2626,-1.2625,-1.2627,-1.2587,-1.258,-1.2627,-1.2627,-1.2627,-1.2627,-1.2627,-1.2627,-1.2423,-1.2453,-1.2456,-1.249,-1.2499,-1.2523,-1.2532,-1.2545,-1.2555,-1.2583,-1.26,-1.2605,-1.2617,-1.2637,-1.2654,-1.2656,-1.2663,-1.2671,-1.2672,-1.2635,-1.263,-1.2625,-1.2618,-1.2673,-1.2673,-1.271,-1.271,-1.271]},{"header":{"parameterUnit":"m.s-1","parameterCategory":1,"la1":30.2991,"la2":30.254,"lo1":-89.0895,"lo2":-89.0444,"dy":0.0017,"dx":0.0017,"nx":28,"ny":28,"refTime":"2024-04-20T03:00:00:Z","depth":0,"parameterNumber":3,"parameterNumberName":"V-component_of_WINDS"},"data":[0,0,0,0,0,0,0,0,0,0,0,0,0,0,0,0,0,0,0,0,0,0,0,0,0,0,0,0,0,0,0,0,0,0,0,0,0,0,0,0,0,0,0,0,0,0,0,0,0,0,0,0,0,0,0,0,0,0,-7.4621,-7.4623,0,-7.4767,-7.4768,-7.477,-7.4732,-7.4729,-7.4727,-7.4724,-7.4865,-7.4871,-7.4878,0,0,0,0,0,0,0,0,0,0,0,0,0,-7.4303,-7.4309,-7.4621,-7.4623,-7.4625,-7.4766,-7.4768,-7.477,-7.4733,-7.4729,-7.4726,-7.4723,-7.4863,-7.4871,-7.4878,0,0,0,0,0,0,0,0,0,0,0,0,0,-7.4444,-7.4311,-7.462,-7.4623,-7.4625,-7.4766,-7.4768,-7.4771,-7.4733,-7.4729,-7.4725,-7.4721,-7.486,-7.487,-7.4879,-7.5025,0,0,-7.4909,-7.4913,0,0,0,0,0,0,0,0,-7.4436,-7.4455,-7.4621,-7.4623,-7.4625,-7.4727,-7.4708,-7.4856,-7.4735,-7.4692,-7.4724,-7.4719,-7.4822,-7.4835,-7.4871,-7.5031,-7.5037,-7.491,-7.4915,-7.492,-7.4922,0,0,0,0,0,0,0,-7.4426,-7.4449,-7.4678,-7.4623,-7.4626,-7.4614,-7.463,-7.4736,-7.4779,-7.4695,-7.4693,-7.4711,-7.4822,-7.4862,-7.4874,-7.5039,-7.4909,-7.4918,-7.4924,-7.4928,-7.5326,-7.5331,0,0,0,0,0,0,-7.4416,-7.4441,-7.4674,-7.4683,-7.4518,-7.4624,-7.4641,-7.4699,-7.4778,-7.4786,-7.4715,-7.4709,-7.4848,-7.4863,-7.4879,-7.5055,-7.492,-7.4929,-7.4934,-7.5321,-7.5327,-7.5332,0,0,0,0,0,0,-7.4409,-7.4437,-7.4668,-7.4561,-7.459,-7.4634,-7.4699,-7.4704,-7.4743,-7.4793,-7.4799,-7.4748,-7.4845,-7.4865,-7.4989,-7.5059,-7.4933,-7.4942,-7.5316,-7.5323,-7.533,-7.5408,0,0,0,0,0,0,-7.44,-7.4435,-7.4492,-7.4563,-7.4596,-7.4778,-7.4703,-7.471,-7.4761,-7.4755,-7.4825,-7.4833,-7.4843,-7.4975,-7.4999,-7.507,-7.4949,-7.531,-7.5319,-7.5327,-7.5399,-7.5417,-7.5432,0,0,0,0,0,-7.4389,-7.4506,-7.4495,-7.4523,-7.4669,-7.4782,-7.4801,-7.4813,-7.4767,-7.4824,-7.4855,-7.483,-7.5048,-7.4988,-7.5015,-7.509,-7.5305,-7.5316,-7.5327,-7.5392,-7.5413,-7.5431,0,0,0,0,0,0,-7.4439,-7.4515,-7.4504,-7.4648,-7.471,-7.4776,-7.4848,-7.4835,-7.4908,-7.4899,-7.4908,-7.4924,-7.5051,-7.5082,-7.5015,-7.5235,-7.5169,-7.5186,-7.521,-7.5231,-7.5247,-7.5236,-7.4957,0,0,0,0,0,-7.4467,-7.4556,-7.4616,-7.4738,-7.477,-7.4804,-7.4854,-7.4858,-7.492,-7.4945,-7.4986,-7.5045,-7.5127,-7.518,-7.5258,-7.5403,-7.5418,-7.5468,-7.5484,-7.5497,-7.5512,-7.5591,-7.5614,-7.5368,-7.5368,-7.5368,0,0,-7.4526,-7.4578,-7.4633,-7.4749,-7.4797,-7.4887,-7.4826,-7.4922,-7.4988,-7.4959,-7.508,-7.5111,-7.5178,-7.5314,-7.5375,-7.5344,-7.5583,-7.5511,-7.5521,-7.5529,-7.5604,-7.5628,-7.5648,-7.5375,-7.5374,-7.5373,0,0,-7.4678,-7.4728,-7.4835,-7.4885,-7.4959,-7.4981,-7.5007,-7.5076,-7.5097,-7.5219,-7.5199,-7.5276,-7.5416,-7.5465,-7.5508,-7.5681,-7.566,-7.5705,-7.5791,-7.5868,-7.5887,-7.5905,-7.5966,-7.5988,-7.5719,-7.572,-7.572,0,-7.4741,-7.4878,-7.4891,-7.4991,-7.5042,-7.5022,-7.513,-7.5177,-7.5271,-7.5306,-7.527,-7.5447,-7.5491,-7.5638,-7.568,-7.5715,-7.5744,-7.5697,-7.5884,-7.5901,-7.5918,-7.5977,-7.6,-7.5725,-7.5724,-7.5723,-7.5723,0,-7.4951,-7.5046,-7.5123,-7.5219,-7.5279,-7.5381,-7.5408,-7.5467,-7.5466,-7.5491,-7.5615,-7.5667,-7.5755,-7.579,-7.5788,-7.5937,-7.5915,-7.5882,-7.5816,-7.5946,-7.6002,-7.6024,-7.5732,-7.573,-7.5728,-7.5727,0,0,-7.5139,-7.5242,-7.527,-7.5314,-7.5395,-7.5467,-7.5569,-7.5658,-7.5708,-7.5774,-7.5858,-7.5978,-7.5949,-7.5998,-7.6001,-7.6069,-7.6203,-7.6027,-7.6029,-7.6058,-7.637,-7.6395,-7.6421,-7.619,-7.6194,-7.6198,-7.6364,0,-7.5299,-7.5482,-7.5497,-7.5659,-7.5747,-7.573,-7.5818,-7.5876,-7.5903,-7.5978,-7.6006,-7.6092,-7.6045,-7.6075,-7.6141,-7.6173,-7.6265,-7.6161,-7.6267,-7.6271,-7.6252,-7.645,-7.6477,-7.6632,-7.6386,-7.639,-7.6392,0,-7.5511,-7.5587,-7.576,-7.583,-7.5867,-7.5946,-7.603,-7.6103,-7.6168,-7.6182,-7.6238,-7.6233,-7.6335,-7.6266,-7.6406,-7.6334,-7.6378,-7.64,-7.6406,-7.6417,-7.634,-7.6466,-7.6681,-7.6705,-7.6426,-7.6424,-7.6421,0,-7.5631,-7.5776,-7.5899,-7.5936,-7.6021,-7.6077,-7.6114,-7.6175,-7.6228,-7.63,-7.6334,-7.6416,-7.6461,-7.6523,-7.6539,-7.6488,-7.6679,-7.6611,-7.6693,-7.6692,-7.6734,-7.6731,-7.696,-7.6762,-7.6761,-7.6761,-7.676,0,-7.5809,-7.5915,-7.5954,-7.603,-7.6148,-7.6163,-7.6279,-7.6312,-7.6367,-7.6447,-7.6435,-7.651,-7.6527,-7.6604,-7.6617,-7.6731,-7.6751,-7.6764,-7.6766,-7.6766,-7.6764,-7.6795,-7.6784,-7.6767,-7.6766,-7.6765,-7.6763,0,-7.5964,-7.5994,-7.6127,-7.6197,-7.6217,-7.6301,-7.636,-7.6431,-7.6456,-7.6557,-7.6582,-7.6621,-7.6711,-7.6734,-7.684,-7.6849,-7.6984,-7.6976,-7.6964,-7.6963,-7.7043,-7.7036,-7.73,-7.7335,-7.7114,-7.7116,-7.7118,0,-7.6076,-7.6158,-7.6238,-7.6292,-7.6333,-7.642,-7.6475,-7.6492,-7.6549,-7.663,-7.6692,-7.6781,-7.6854,-7.6999,-7.7035,-7.7117,-7.711,-7.7197,-7.7122,-7.712,-7.7112,-7.7108,-7.7116,-7.7212,-7.7214,-7.7216,-7.7217,0,-7.6271,-7.6282,-7.6364,-7.6451,-7.6518,-7.6587,-7.6652,-7.6696,-7.6722,-7.6787,-7.6881,-7.6938,-7.7049,-7.7138,-7.722,-7.7255,-7.7241,-7.7241,-7.7264,-7.7264,-7.7254,-7.7262,-7.7003,-7.7235,-7.7233,-7.7232,-7.7231,-7.723,-7.6408,-7.6481,-7.6549,-7.664,-7.6692,-7.6753,-7.6825,-7.686,-7.694,-7.7034,-7.7038,-7.7141,-7.7203,-7.7313,-7.7353,-7.7431,-7.7405,-7.7438,-7.7447,-7.7455,-7.7462,-7.7242,-7.7446,-7.7446,-7.7445,-7.7445,-7.7445,0,-7.6603,-7.6647,-7.6731,-7.6824,-7.6896,-7.6879,-7.695,-7.701,-7.7102,-7.7162,-7.7235,-7.7343,-7.743,-7.7473,-7.7559,-7.7613,-7.7608,-7.7635,-7.7631,-7.7639,-7.7481,-7.7453,-7.7637,-7.7637,-7.7637,-7.7637,-7.7637,-7.7637,-7.6713,-7.6836,-7.6855,-7.7002,-7.7044,-7.7147,-7.719,-7.7246,-7.7295,-7.7417,-7.749,-7.7519,-7.7573,-7.7662,-7.774,-7.775,-7.7782,-7.7812,-7.7819,-7.767,-7.765,-7.7632,-7.7605,-7.7819,-7.7819,-7.7971,-7.7972,-7.7973]}]]